SB KEPS @ AMSAT $ORB06264.N 2Line Orbital Elements 06264.AMSAT
HR AMSAT ORBITAL ELEMENTS FOR AMATEUR SATELLITES IN NASA FORMAT FROM WA5QGD FORT WORTH,TX September 21, 2006 Send SUBSCRIBE KEPS/UNSUBSCRIBE KEPS to majordomo@amsat.org only BID: ORB06264.N
DECODE 2-LINE ELSETS WITH THE FOLLOWING KEY: 1 AAAAAU 00 0 0 BBBBB.BBBBBBBB .CCCCCCCC 00000-0 00000-0 0 DDDZ 2 AAAAA EEE.EEEE FFF.FFFF GGGGGGG HHH.HHHH III.IIII JJ.JJJJJJJJKKKKKZ KEY: A-CATALOGNUM B-EPOCHTIME C-DECAY D-ELSETNUM E-INCLINATION F-RAAN G-ECCENTRICITY H-ARGPERIGEE I-MNANOM J-MNMOTION K-ORBITNUM Z-CHECKSUM
TO ALL RADIO AMATEURS BT
AO-07 1 07530U 74089B 06263.55530841 -.00000028 00000-0 10000-3 0 6858 2 07530 101.5586 304.0713 0012117 061.5121 298.7170 12.53571537457334 UO-11 1 14781U 84021B 06264.08855022 .00000411 00000-0 62346-4 0 1795 2 14781 098.2080 276.3455 0008563 323.0763 036.9846 14.79464079209949 RS-10/11 1 18129U 87054A 06264.10289470 .00000036 00000-0 23102-4 0 963 2 18129 082.9217 257.1977 0011114 179.4070 180.7100 13.72778684964319 RS-15 1 23439U 94085A 06261.94058305 -.00000039 00000-0 10597-3 0 00377 2 23439 064.8162 085.5947 0166387 237.8312 120.6379 11.27551951483117 FO-29 1 24278U 96046B 06263.57125813 -.00000045 00000-0 -12682-4 0 3232 2 24278 098.5177 254.9280 0351411 062.3521 301.2823 13.52923379498448 SO-33 1 25509U 98061B 06264.49124438 .00000240 00000-0 33338-4 0 7491 2 25509 031.4343 304.8629 0355656 238.3510 118.1953 14.28117916412819 VO-52 1 28650U 05017B 06263.71354163 .00000482 00000-0 68387-4 0 4334 2 28650 097.8644 335.0156 0028287 052.3063 308.0718 14.81176026 74521 AO-16 1 20439U 90005D 06263.75354107 .00000023 00000-0 23848-4 0 8499 2 20439 098.1908 268.3322 0010031 272.2009 087.8011 14.31733373869999 LO-19 1 20442U 90005G 06264.04697617 .00000095 00000-0 50445-4 0 7842 2 20442 098.1877 278.1275 0010986 269.6457 090.3463 14.31976369870176 AO-27 1 22825U 93061C 06263.52126714 .00000066 00000-0 42372-4 0 5005 2 22825 098.2934 240.7179 0008572 346.6310 013.4644 14.29184180676976 IO-26 1 22826U 93061D 06264.38479429 .00000024 00000-0 25497-4 0 1936 2 22826 098.2879 242.7162 0008914 341.2777 018.8089 14.29428273677176 PO-28 1 22829U 93061G 06264.47186637 .00000077 00000-0 45634-4 0 4762 2 22829 098.2773 243.9970 0009155 314.0392 046.0049 14.30124209677400 GO-32 1 25397U 98043D 06264.72334152 -.00000129 00000-0 -38737-4 0 1151 2 25397 098.4575 318.1012 0000827 338.0615 022.0525 14.23110323425978 MO-46 1 26548U 00057D 06264.54115297 .00000138 00000-0 34988-4 0 6017 2 26548 064.5575 293.7059 0043026 233.4443 126.2704 14.83020230323690 NO-44 1 26931U 01043C 06263.71613305 -.00000215 00000-0 -51833-4 0 4058 2 26931 067.0520 121.6183 0005361 251.1633 108.8914 14.29451673259583 SO-50 1 27607U 02058C 06264.28507578 -.00000022 00000-0 18178-4 0 1263 2 27607 064.5586 181.3785 0035662 107.3834 253.1157 14.71173295201567 CO-55 1 27844U 03031E 06263.67894041 .00000058 00000-0 47608-4 0 8539 2 27844 098.7246 270.6532 0009753 143.0112 217.1743 14.20457994167211 CO-57 1 27848U 03031J 06264.58164762 .00000039 00000-0 38788-4 0 8194 2 27848 098.7213 270.8467 0009814 144.4115 215.7718 14.20284385167324 AO-51 1 28375U 04025K 06263.72237734 .00000014 00000-0 17468-4 0 6327 2 28375 098.1551 311.3568 0083572 279.2278 079.9472 14.40533281116912 CO-56 1 28941U 06005C 06264.79090485 .00021507 23283-5 26133-3 0 2051 2 28941 098.1720 292.8502 0270513 135.1251 227.2202 15.28004654 32284 NOAA-10 1 16969U 86073A 06264.46464767 .00000036 00000-0 33079-4 0 3547 2 16969 098.7606 276.3056 0011648 228.9006 131.1176 14.27304135 40896 NOAA-11 1 19531U 88089A 06264.25711981 -.00000240 00000-0 -10143-3 0 2931 2 19531 098.8247 351.6262 0012443 076.7610 283.4956 14.14816214928126 NOAA-12 1 21263U 91032A 06264.47730054 -.00000091 00000-0 -19615-4 0 7870 2 21263 098.7382 257.3890 0012828 164.4008 195.7577 14.25507294797969 MET-3/5 1 21655U 91056A 06263.85995811 .00000051 00000-0 10000-3 0 1603 2 21655 082.5577 193.2008 0012869 156.6404 203.5305 13.17007300725958 MET-2/21 1 22782U 93055A 06264.50107925 -.00000008 00000-0 -20249-4 0 6202 2 22782 082.5434 255.0374 0020767 270.6443 089.2337 13.83610213659362 OKEAN-4 1 23317U 94066A 06264.40674532 .00000137 00000-0 13982-4 0 562 2 23317 082.5420 187.2587 0024039 059.1499 301.2076 14.82399557644233 NOAA-14 1 23455U 94089A 06264.34355508 .00000091 00000-0 72194-4 0 2833 2 23455 099.0299 323.5989 0009957 136.9224 223.2715 14.13684654604650 SICH-1 1 23657U 95046A 06263.72316882 .00000211 00000-0 23834-4 0 8583 2 23657 082.5319 328.8060 0025468 051.3596 308.9895 14.81391694596136 NOAA-15 1 25338U 98030A 06264.45688581 .00000212 00000-0 10937-3 0 6696 2 25338 098.5206 263.9001 0011576 092.5825 267.6694 14.24604395434420 RESURS 1 25394U 98043A 06264.75052105 -.00000017 00000-0 11076-4 0 4634 2 25394 098.4824 324.3357 0000627 266.9688 093.1419 14.24111998426141 FENGYUN1 1 25730U 99025A 06263.58448651 .00000135 00000-0 97098-4 0 8287 2 25730 098.6336 252.5563 0013713 227.9495 132.0496 14.11816899379478 OKEAN-0 1 25860U 99039A 06263.62795857 .00000077 00000-0 19020-4 0 8569 2 25860 097.7340 273.5149 0001368 103.7870 256.3495 14.73389788385804 NOAA-16 1 26536U 00055A 06264.13737824 -.00000166 00000-0 -64987-4 0 517 2 26536 099.0778 231.9338 0009897 207.6528 152.4123 14.12368706309127 NOAA-17 1 27453U 02032A 06264.30671388 .00000210 00000-0 11072-3 0 710 2 27453 098.6146 334.6170 0012298 152.8941 207.2907 14.23811412220450 NOAA-18 1 28654U 05018A 06264.29330891 -.00000083 00000-0 -22153-4 0 6438 2 28654 098.7934 205.5386 0014053 313.2448 046.7563 14.10992196 68933 HUBBLE 1 20580U 90037B 06264.76771594 .00000466 00000-0 23464-4 0 7029 2 20580 028.4673 140.2757 0003849 132.2722 227.8193 15.00096675699618 UARS 1 21701U 91063B 06264.45081448 .00005577 00000-0 10452-3 0 8743 2 21701 056.9760 037.2468 0104141 037.3700 323.4537 15.44678887824174 PO-34 1 25520U 98064B 06264.15110959 .00000554 00000-0 17672-4 0 5661 2 25520 028.4583 109.1043 0005668 203.0976 156.9363 15.16792695436632 ISS 1 25544U 98067A 06264.94025581 .00020120 00000-0 12994-3 0 7151 2 25544 051.6356 049.0536 0012123 011.5444 081.6974 15.76014342448423 OO-38 1 26063U 00004C 06263.90351025 .00000001 00000-0 20728-4 0 7221 2 26063 100.1924 212.1924 0036761 197.2871 162.7058 14.35777506348408 NO-45 1 26932U 01043D 06264.07547087 -.00000048 00000-0 13456-4 0 4144 2 26932 067.0527 120.4135 0006706 235.6372 124.4093 14.29535116259673 UWE-1 1 28892U 05043C 06264.25340597 .00000094 00000-0 29561-4 0 5563 2 28892 098.1506 160.8588 0016460 230.7728 129.2012 14.59396439 47980 CO-58 1 28895U 05043F 06264.17261139 .00000172 00000-0 45979-4 0 5402 2 28895 098.1529 160.8927 0017024 230.7112 129.2595 14.59447231 47858 NCUBE2 1 28897U 05043H 06261.26045817 .00000144 00000-0 39936-4 0 01225 2 28897 098.1515 158.0092 0016350 243.4343 116.5149 14.59602340039708 /EX